User: anonymous   Login
Location: Unspecified
(0.0000°N, 0.0000°E)
Time: 04:15:11
(UTC+00:00)
Language:

OPTUS 1C - Orbit

View from above orbital plane
View from above orbital plane
View from above satellite
View from above satellite

Ground track
Ground track

The orbit data is extracted from the following two-line orbital elements,

1 27831U 03028B   16121.33125742 -.00000156  00000-0  00000+0 0  9994
2 27831   0.0178 203.6023 0002409 212.3106  78.0743  1.00271593 47227
Epoch (UTC): 30 April 2016 07:57:00
Eccentricity: 0.0002409
inclination: 0.0178°
perigee height: 35776 km
apogee height: 35796 km
right ascension of ascending node: 203.6023°
argument of perigee: 212.3106°
revolutions per day: 1.00271593
mean anomaly at epoch: 78.0743°
orbit number at epoch: 4722

The dashed part of the orbit path shows where the satellite is in the earth's shadow,  

DLR